FW8870 Weather Reports


Display with metric or nautical units.
time (UTC)temp
F
wind
direction
speed
MPH
gust
MPH
rain 1hr
in
rain 24hr
in
rain mn
in
humidity
%
barometer
mb
20260508173827 58 189 0.0 0.0 0.00 0.00 0.00 80 1020.6
20260508173325 58 334 0.0 0.0 0.00 0.00 0.00 80 1020.6
20260508172820 58 241 0.0 0.0 0.00 0.00 0.00 80 1020.5
20260508172317 59 4 0.0 0.0 0.00 0.00 0.00 81 1020.6
20260508171814 58 347 0.0 0.0 0.00 0.00 0.00 81 1020.4
20260508171310 58 33 5.0 6.0 0.00 0.00 0.00 79 1020.2
20260508170807 58 160 0.0 1.0 0.00 0.00 0.00 80 1020.1
20260508170306 59 199 4.0 7.0 0.00 0.00 0.00 79 1020.2
20260508165801 57 336 0.0 0.0 0.00 0.00 0.00 81 1020.2
20260508165259 56 272 0.0 0.0 0.00 0.00 0.00 83 1020.2
20260508164754 57 20 0.0 0.0 0.00 0.00 0.00 84 1020.5
20260508164252 57 161 3.0 5.0 0.00 0.00 0.00 81 1020.2
20260508163750 57 162 0.0 0.0 0.00 0.00 0.00 82 1020.3
20260508163247 57 353 0.0 0.0 0.00 0.00 0.00 81 1020.3
20260508162743 57 137 0.0 0.0 0.00 0.00 0.00 82 1020.2
20260508162240 56 275 0.0 0.0 0.00 0.00 0.00 84 1020.2
20260508161737 56 103 1.0 3.0 0.00 0.00 0.00 84 1020.3
20260508161234 55 228 0.0 0.0 0.00 0.00 0.00 85 1020.0
20260508160732 55 290 0.0 0.0 0.00 0.00 0.00 85 1020.1
20260508160230 55 354 0.0 0.0 0.00 0.00 0.00 87 1020.2
20260508155726 54 29 0.0 0.0 0.00 0.00 0.00 88 1020.3
20260508155223 54 356 0.0 0.0 0.00 0.00 0.00 89 1020.3
20260508154720 54 136 0.0 0.0 0.00 0.00 0.00 89 1020.4
20260508154217 54 301 0.0 0.0 0.00 0.00 0.00 89 1020.5
20260508153714 54 338 0.0 0.0 0.00 0.00 0.00 88 1020.3
20260508153211 54 292 0.0 0.0 0.00 0.00 0.00 88 1020.3
20260508152708 54 313 0.0 0.0 0.00 0.00 0.00 89 1020.3
20260508152203 54 306 0.0 0.0 0.00 0.00 0.00 89 1020.3
20260508151700 54 323 0.0 0.0 0.00 0.00 0.00 88 1020.2
20260508151157 54 151 1.0 2.0 0.00 0.00 0.00 89 1019.9
20260508150654 54 283 0.0 0.0 0.00 0.00 0.00 89 1019.8
20260508150150 53 229 0.0 0.0 0.00 0.00 0.00 89 1020.1
20260508145646 53 227 2.0 5.0 0.00 0.00 0.00 90 1019.9
20260508145142 53 118 1.0 5.0 0.00 0.00 0.00 90 1019.7
20260508144640 53 148 0.0 1.0 0.00 0.00 0.00 90 1019.7
20260508144138 53 120 0.0 0.0 0.00 0.00 0.00 91 1019.4
20260508143635 53 256 0.0 0.0 0.00 0.00 0.00 92 1019.6
20260508143132 53 89 0.0 0.0 0.00 0.00 0.00 92 1019.4
20260508142628 53 301 0.0 0.0 0.00 0.00 0.00 92 1019.2
20260508142125 53 154 0.0 0.0 0.00 0.00 0.00 92 1019.3
20260508141622 53 201 0.0 0.0 0.00 0.00 0.00 94 1019.4
20260508141119 53 287 0.0 0.0 0.00 0.00 0.00 94 1019.4
20260508140616 52 287 0.0 0.0 0.00 0.00 0.00 94 1019.2
20260508140113 52 186 0.0 0.0 0.00 0.00 0.00 95 1019.1
20260508135608 52 211 0.0 0.0 0.00 0.00 0.00 98 1019.1
20260508135105 51 323 0.0 0.0 0.00 0.00 0.00 99 1019.0
20260508134602 51 303 0.0 0.0 0.00 0.00 0.00 99 1019.0
20260508134059 51 338 0.0 0.0 0.00 0.00 0.00 99 1019.1
20260508133555 51 332 0.0 0.0 0.00 0.00 0.00 99 1019.2
20260508133053 51 334 0.0 0.0 0.00 0.00 0.00 99 1019.1
20260508132550 51 316 0.0 0.0 0.00 0.00 0.00 99 1019.0
20260508132047 51 317 0.0 0.0 0.00 0.00 0.00 99 1018.8
20260508131542 51 300 0.0 0.0 0.00 0.00 0.00 99 1018.8
20260508131039 51 316 0.0 0.0 0.00 0.00 0.00 99 1018.9
20260508130537 51 308 0.0 0.0 0.00 0.00 0.00 99 1018.9
20260508130033 51 308 0.0 0.0 0.00 0.00 0.00 99 1018.8
20260508125529 51 253 0.0 0.0 0.00 0.00 0.00 99 1018.7
20260508125027 51 294 0.0 0.0 0.00 0.00 0.00 99 1018.7
20260508124524 50 308 0.0 0.0 0.00 0.00 0.00 99 1018.9
20260508124021 50 302 0.0 0.0 0.00 0.00 0.00 99 1018.9
20260508123520 50 301 0.0 0.0 0.00 0.00 0.00 99 1018.7
20260508123016 50 280 0.0 0.0 0.00 0.00 0.00 99 1018.8
20260508122513 50 314 0.0 0.0 0.00 0.00 0.00 99 1018.6
20260508122010 50 306 0.0 0.0 0.00 0.00 0.00 99 1018.6
20260508121508 50 336 0.0 0.0 0.00 0.00 0.00 99 1018.7
20260508121006 50 306 0.0 0.0 0.00 0.00 0.00 99 1018.6
20260508120503 50 148 0.0 0.0 0.00 0.00 0.00 99 1018.6
20260508120001 50 60 0.0 0.0 0.00 0.00 0.00 99 1018.5
20260508115458 50 2 0.0 0.0 0.00 0.00 0.00 99 1018.6
20260508114955 50 355 0.0 0.0 0.00 0.00 0.00 99 1018.6
20260508114452 50 331 0.0 0.0 0.00 0.00 0.00 99 1018.5
20260508113948 50 347 0.0 0.0 0.00 0.00 0.00 99 1018.7
20260508113446 50 279 0.0 0.0 0.00 0.00 0.00 99 1018.6
20260508112943 50 338 0.0 0.0 0.00 0.00 0.00 99 1018.5
20260508112439 50 327 0.0 0.0 0.00 0.00 0.00 99 1018.5
20260508111936 50 338 0.0 0.0 0.00 0.00 0.00 99 1018.6
20260508111433 50 334 0.0 0.0 0.00 0.00 0.00 99 1018.6
20260508110930 50 309 0.0 0.0 0.00 0.00 0.00 99 1018.5
20260508110428 50 330 0.0 0.0 0.00 0.00 0.00 99 1018.6
20260508105927 50 325 0.0 0.0 0.00 0.00 0.00 99 1018.7
20260508105424 50 289 0.0 0.0 0.00 0.00 0.00 99 1018.6
20260508104921 50 331 0.0 0.0 0.00 0.00 0.00 99 1018.5
20260508104419 50 358 0.0 0.0 0.00 0.00 0.00 99 1018.5
20260508103915 51 299 0.0 0.0 0.00 0.00 0.00 99 1018.7
20260508103413 51 316 0.0 0.0 0.00 0.00 0.00 99 1018.5
20260508102909 51 321 0.0 0.0 0.00 0.00 0.00 99 1018.4
20260508102408 51 347 0.0 0.0 0.00 0.00 0.00 99 1018.3
20260508101905 52 349 0.0 0.0 0.00 0.00 0.00 99 1018.5
20260508101402 51 330 0.0 0.0 0.00 0.00 0.00 98 1018.4
20260508100859 52 329 0.0 0.0 0.00 0.00 0.00 97 1018.4
20260508100358 52 330 0.0 0.0 0.00 0.00 0.00 96 1018.3
20260508095853 53 325 0.0 0.0 0.00 0.00 0.00 95 1018.3
20260508095352 53 314 0.0 0.0 0.00 0.00 0.00 94 1017.9
20260508094848 54 309 0.0 0.0 0.00 0.00 0.00 93 1018.2
20260508094345 53 325 0.0 0.0 0.00 0.00 0.00 93 1018.1
20260508093842 54 324 0.0 0.0 0.00 0.00 0.00 93 1018.2
20260508093339 53 69 0.0 0.0 0.00 0.00 0.00 94 1018.1
20260508092836 53 330 0.0 0.0 0.00 0.00 0.00 95 1017.9
20260508092334 53 336 0.0 0.0 0.00 0.00 0.00 95 1017.9
20260508091832 53 341 0.0 0.0 0.00 0.00 0.00 94 1017.9
20260508091328 54 337 0.0 0.0 0.00 0.00 0.00 94 1018.0
20260508090826 53 334 0.0 0.0 0.00 0.00 0.00 96 1018.2
20260508090325 53 315 0.0 0.0 0.00 0.00 0.00 96 1018.1
20260508085820 53 323 0.0 0.0 0.00 0.00 0.00 96 1018.0
20260508085317 53 339 0.0 0.0 0.00 0.00 0.00 97 1017.9
20260508084814 53 339 0.0 0.0 0.00 0.00 0.00 96 1018.2
20260508084311 54 351 0.0 0.0 0.00 0.00 0.00 96 1018.2
20260508083808 54 350 0.0 0.0 0.00 0.00 0.00 96 1018.2
20260508083306 54 324 0.0 0.0 0.00 0.00 0.00 95 1018.3
20260508082805 54 340 0.0 0.0 0.00 0.00 0.00 95 1018.3
20260508082306 54 294 0.0 0.0 0.00 0.00 0.00 95 1018.3
20260508081801 54 338 0.0 0.0 0.00 0.00 0.00 95 1018.5
20260508081257 54 335 0.0 0.0 0.00 0.00 0.00 95 1018.2
20260508080754 54 334 0.0 0.0 0.00 0.00 0.00 95 1018.5
20260508080252 54 320 0.0 0.0 0.00 0.00 0.00 95 1018.4
20260508075748 54 320 0.0 0.0 0.00 0.00 0.00 94 1018.6
20260508075245 54 314 0.0 0.0 0.00 0.00 0.00 94 1018.4
20260508074743 54 316 0.0 0.0 0.00 0.00 0.00 93 1018.6
20260508074240 54 314 0.0 0.0 0.00 0.00 0.00 94 1018.3
20260508073737 54 315 0.0 0.0 0.00 0.00 0.00 94 1018.4
20260508073235 54 314 0.0 0.0 0.00 0.00 0.00 94 1018.6
20260508072731 54 321 0.0 0.0 0.00 0.00 0.00 93 1018.5
20260508072228 54 321 0.0 0.0 0.00 0.00 0.00 93 1018.6
20260508071725 54 321 0.0 0.0 0.00 0.00 0.00 93 1018.3
20260508071224 54 321 0.0 0.0 0.00 0.00 0.00 93 1018.6
20260508070721 54 322 0.0 0.0 0.00 0.00 0.00 93 1018.7
20260508070219 54 321 0.0 0.0 0.00 0.00 0.00 93 1018.5
20260508065716 54 322 0.0 0.0 0.00 0.00 0.00 92 1018.6
20260508065214 54 322 0.0 0.0 0.00 0.00 0.00 93 1018.6
20260508064711 55 322 0.0 0.0 0.00 0.00 0.00 92 1018.6
20260508064209 55 322 0.0 0.0 0.00 0.00 0.00 92 1018.5
20260508063707 55 323 0.0 0.0 0.00 0.00 0.00 92 1018.7
20260508063204 55 312 0.0 0.0 0.00 0.00 0.00 91 1018.7
20260508062701 55 328 0.0 0.0 0.00 0.00 0.00 91 1018.4
20260508062158 55 329 0.0 0.0 0.00 0.00 0.00 90 1018.4
20260508061655 55 320 0.0 0.0 0.00 0.00 0.00 90 1018.3
20260508061153 56 336 0.0 0.0 0.00 0.00 0.00 87 1018.5
20260508060649 56 337 0.0 0.0 0.00 0.00 0.00 87 1018.4
20260508060147 57 344 0.0 0.0 0.00 0.00 0.00 85 1018.3
20260508055642 57 347 0.0 0.0 0.00 0.00 0.00 83 1018.3
20260508055139 57 347 0.0 0.0 0.00 0.00 0.00 83 1018.5
20260508054636 57 331 0.0 0.0 0.00 0.00 0.00 82 1018.4
20260508054134 57 329 0.0 0.0 0.00 0.00 0.00 83 1018.5
20260508053630 57 340 0.0 0.0 0.00 0.00 0.00 82 1018.6
20260508053128 57 340 0.0 0.0 0.00 0.00 0.00 84 1018.4
20260508052625 57 336 0.0 0.0 0.00 0.00 0.00 88 1018.6
20260508052122 57 323 0.0 0.0 0.00 0.00 0.00 86 1018.5
20260508051618 57 2 0.0 0.0 0.00 0.00 0.00 86 1018.6
20260508051113 58 321 0.0 0.0 0.00 0.00 0.00 84 1018.6
20260508050610 58 331 0.0 0.0 0.00 0.00 0.00 81 1018.4
20260508050108 58 301 0.0 0.0 0.00 0.00 0.00 80 1018.7
20260508045604 58 316 0.0 0.0 0.00 0.00 0.00 82 1018.7
20260508045102 57 311 0.0 0.0 0.00 0.00 0.00 84 1018.8
20260508044559 58 339 0.0 0.0 0.00 0.00 0.00 87 1018.6
20260508044055 58 0 0.0 0.0 0.00 0.00 0.00 81 1018.6
20260508043551 58 319 0.0 0.0 0.00 0.00 0.00 82 1018.6
20260508043049 59 309 0.0 0.0 0.00 0.00 0.00 81 1018.8
20260508042545 59 328 0.0 0.0 0.00 0.00 0.00 81 1018.8
20260508042043 59 306 0.0 0.0 0.00 0.00 0.00 81 1018.5
20260508041539 59 323 0.0 0.0 0.00 0.00 0.00 79 1018.7
20260508041035 59 340 0.0 0.0 0.00 0.00 0.00 81 1018.7
20260508040532 59 321 0.0 0.0 0.00 0.00 0.00 80 1018.7
20260508040030 59 344 0.0 0.0 0.00 0.00 0.00 82 1018.7
20260508035527 59 338 0.0 0.0 0.00 0.00 0.00 83 1018.5
20260508035024 59 343 0.0 0.0 0.00 0.00 0.00 83 1018.5
20260508034521 59 338 0.0 0.0 0.00 0.00 0.00 88 1018.5
20260508034018 59 338 0.0 0.0 0.00 0.00 0.00 86 1018.4
20260508033516 59 338 0.0 0.0 0.00 0.00 0.00 87 1018.5
20260508033014 59 338 0.0 0.0 0.00 0.00 0.00 85 1018.4
20260508032510 60 334 0.0 0.0 0.00 0.00 0.00 83 1018.4
20260508032008 60 333 0.0 0.0 0.00 0.00 0.00 79 1018.6
20260508031505 60 334 0.0 0.0 0.00 0.00 0.00 77 1018.5
20260508030959 61 327 0.0 0.0 0.00 0.00 0.00 77 1018.6
20260508030457 61 319 0.0 0.0 0.00 0.00 0.00 77 1018.8
20260508025955 61 320 0.0 0.0 0.00 0.00 0.00 77 1018.7
20260508025451 60 339 0.0 0.0 0.00 0.00 0.00 79 1018.7
20260508024948 60 337 0.0 0.0 0.00 0.00 0.00 78 1018.6
20260508024444 61 318 0.0 0.0 0.00 0.00 0.00 82 1018.5
20260508023941 61 318 0.0 0.0 0.00 0.00 0.00 81 1018.6
20260508023438 61 318 0.0 0.0 0.00 0.00 0.00 83 1018.5
20260508022935 61 318 0.0 0.0 0.00 0.00 0.00 81 1018.4
20260508022431 61 318 0.0 0.0 0.00 0.00 0.00 80 1018.7
20260508021927 61 318 0.0 0.0 0.00 0.00 0.00 81 1018.5
20260508021424 61 318 0.0 0.0 0.00 0.00 0.00 81 1018.6
20260508020919 62 318 0.0 0.0 0.00 0.00 0.00 79 1018.6
20260508020418 62 317 0.0 0.0 0.00 0.00 0.00 76 1018.6
20260508015914 61 336 0.0 0.0 0.00 0.00 0.00 75 1018.8
20260508015413 62 354 0.0 0.0 0.00 0.00 0.00 72 1018.7
20260508014908 62 331 0.0 0.0 0.00 0.00 0.00 73 1018.9
20260508014406 62 340 0.0 0.0 0.00 0.00 0.00 73 1018.9
20260508013902 61 305 0.0 0.0 0.00 0.00 0.00 73 1018.9
20260508013357 62 289 0.0 0.0 0.00 0.00 0.00 75 1019.0
20260508012855 61 326 0.0 0.0 0.00 0.00 0.00 74 1019.0
20260508012352 61 303 0.0 0.0 0.00 0.00 0.00 75 1018.9
20260508011850 61 315 0.0 0.0 0.00 0.00 0.00 73 1019.3
20260508011348 62 302 0.0 0.0 0.00 0.00 0.00 73 1019.1
20260508010844 62 339 0.0 0.0 0.00 0.00 0.00 75 1019.4
20260508010342 62 324 0.0 0.0 0.00 0.00 0.00 74 1019.2
20260508005839 62 320 0.0 0.0 0.00 0.00 0.00 75 1019.2
20260508005335 62 335 0.0 0.0 0.00 0.00 0.00 73 1019.2
20260508004831 62 326 0.0 0.0 0.00 0.00 0.00 77 1019.2
20260508004328 62 336 0.0 0.0 0.00 0.00 0.00 75 1019.3
20260508003824 62 347 0.0 0.0 0.00 0.00 0.00 76 1019.3
20260508003322 62 326 0.0 0.0 0.00 0.00 0.00 73 1019.3
20260508002819 62 343 0.0 0.0 0.00 0.00 0.00 74 1019.1
20260508002315 62 333 0.0 0.0 0.00 0.00 0.00 74 1019.2
20260508001811 63 337 0.0 0.0 0.00 0.00 0.00 75 1019.3
20260508001308 63 268 1.0 3.0 0.00 0.00 0.00 74 1019.1
20260508000804 63 314 0.0 0.0 0.00 0.00 0.00 74 1019.1
20260508000301 63 308 0.0 0.0 0.00 0.00 0.00 75 1019.0
20260507235757 64 331 0.0 0.0 0.00 0.00 0.00 74 1019.0
20260507235255 64 331 0.0 0.0 0.00 0.00 0.00 77 1019.2
20260507234751 64 316 0.0 0.0 0.00 0.00 0.00 75 1019.2
20260507234248 64 59 0.0 0.0 0.00 0.00 0.00 74 1019.0
20260507233744 65 334 0.0 0.0 0.00 0.00 0.00 72 1019.0
20260507233243 65 317 0.0 0.0 0.00 0.00 0.00 72 1019.2
20260507232740 65 330 0.0 0.0 0.00 0.00 0.00 71 1018.9
20260507232236 64 321 0.0 0.0 0.00 0.00 0.00 70 1019.1
20260507231732 64 349 0.0 0.0 0.00 0.00 0.00 70 1019.2
20260507231230 65 348 0.0 0.0 0.00 0.00 0.00 69 1019.1
20260507230727 64 354 0.0 0.0 0.00 0.00 0.00 72 1019.3
20260507230224 64 354 0.0 0.0 0.00 0.00 0.00 69 1019.3
20260507225723 64 169 0.0 0.0 0.00 0.00 0.00 73 1019.5
20260507225220 64 309 0.0 0.0 0.00 0.00 0.00 72 1019.4
20260507224716 64 347 0.0 0.0 0.00 0.00 0.00 72 1019.6
20260507224213 64 200 0.0 0.0 0.00 0.00 0.00 74 1019.4
20260507223709 64 134 0.0 0.0 0.00 0.00 0.00 69 1019.5
20260507223206 65 16 0.0 0.0 0.00 0.00 0.00 70 1019.6
20260507222703 65 287 0.0 0.0 0.00 0.00 0.00 71 1019.8
20260507222159 65 335 0.0 0.0 0.00 0.00 0.00 71 1019.7
20260507221656 64 15 0.0 0.0 0.00 0.00 0.00 69 1019.7
20260507221152 65 349 0.0 0.0 0.00 0.00 0.00 71 1019.6
20260507220649 64 324 0.0 0.0 0.00 0.00 0.00 69 1020.0
20260507220147 65 169 2.0 3.0 0.00 0.00 0.00 68 1019.9
20260507215643 66 309 0.0 0.0 0.00 0.00 0.00 68 1020.0
20260507215140 66 322 0.0 0.0 0.00 0.00 0.00 66 1020.0
20260507214637 67 288 0.0 0.0 0.00 0.00 0.00 66 1020.2
20260507214134 66 270 0.0 0.0 0.00 0.00 0.00 66 1020.0
20260507213630 66 280 0.0 0.0 0.00 0.00 0.00 68 1020.3
20260507213128 64 323 0.0 0.0 0.00 0.00 0.00 67 1020.1
20260507212623 64 3 0.0 0.0 0.00 0.00 0.00 67 1020.5
20260507212120 66 295 0.0 0.0 0.00 0.00 0.00 67 1020.3
20260507211617 65 280 0.0 0.0 0.00 0.00 0.00 74 1020.6
20260507211113 63 341 0.0 0.0 0.00 0.00 0.00 73 1020.5
20260507210611 63 138 0.0 0.0 0.00 0.00 0.00 73 1020.8
20260507210107 63 19 0.0 0.0 0.00 0.00 0.00 73 1020.7
20260507205603 63 297 0.0 0.0 0.00 0.00 0.00 72 1020.9
20260507205100 63 337 0.0 0.0 0.00 0.00 0.00 74 1020.9
20260507204556 63 200 0.0 0.0 0.00 0.00 0.00 71 1020.8
20260507204054 63 332 0.0 0.0 0.00 0.00 0.00 73 1021.2
20260507203551 62 338 0.0 0.0 0.00 0.00 0.00 76 1021.3
20260507203049 62 350 0.0 0.0 0.00 0.00 0.00 71 1021.2
20260507202544 62 115 0.0 0.0 0.00 0.00 0.00 73 1021.0
20260507202041 62 322 0.0 0.0 0.00 0.00 0.00 73 1021.2
20260507201536 63 328 0.0 0.0 0.00 0.00 0.00 70 1021.3
20260507201033 63 191 0.0 0.0 0.00 0.00 0.00 68 1021.0
20260507200529 62 317 0.0 0.0 0.00 0.00 0.00 73 1021.4
20260507200025 61 309 0.0 0.0 0.00 0.00 0.00 78 1021.6
20260507195522 61 354 0.0 0.0 0.00 0.00 0.00 73 1021.3
20260507195020 60 340 0.0 0.0 0.00 0.00 0.00 73 1021.7
20260507194516 60 312 0.0 0.0 0.00 0.00 0.00 73 1021.5
20260507194012 60 314 0.0 0.0 0.00 0.00 0.00 75 1021.5
20260507193509 60 331 0.0 0.0 0.00 0.00 0.00 78 1021.4
20260507193006 60 2 0.0 0.0 0.00 0.00 0.00 76 1021.7
20260507192502 60 70 0.0 0.0 0.00 0.00 0.00 76 1021.7
20260507191959 60 334 0.0 0.0 0.00 0.00 0.00 77 1021.8
20260507191500 59 3 0.0 0.0 0.00 0.00 0.00 76 1021.7
20260507190957 60 338 0.0 0.0 0.00 0.00 0.00 74 1021.7
20260507190454 60 314 0.0 0.0 0.00 0.00 0.00 75 1021.8
20260507185953 60 358 0.0 0.0 0.00 0.00 0.00 76 1021.8
20260507185450 60 329 0.0 0.0 0.00 0.00 0.00 76 1021.8
20260507184947 59 330 0.0 0.0 0.00 0.00 0.00 76 1021.8
20260507184445 59 333 0.0 0.0 0.00 0.00 0.00 76 1022.0
20260507183943 60 13 0.0 0.0 0.00 0.00 0.00 73 1022.0
20260507183439 60 336 0.0 0.0 0.00 0.00 0.00 78 1021.7
20260507182936 60 344 0.0 0.0 0.00 0.00 0.00 76 1022.0
20260507182432 60 329 0.0 0.0 0.00 0.00 0.00 79 1022.0
20260507181928 59 332 0.0 0.0 0.00 0.00 0.00 78 1022.2
20260507181424 59 313 0.0 0.0 0.00 0.00 0.00 75 1022.1
20260507180921 60 305 0.0 0.0 0.00 0.00 0.00 76 1022.2
20260507180418 60 326 0.0 0.0 0.00 0.00 0.00 78 1022.0
20260507175914 59 333 0.0 0.0 0.00 0.00 0.00 78 1022.1
20260507175411 59 341 0.0 0.0 0.00 0.00 0.00 78 1022.2
20260507174909 60 331 0.0 0.0 0.00 0.00 0.00 74 1022.4
20260507174406 60 340 0.0 0.0 0.00 0.00 0.00 77 1022.2